DRK300 VQPR-VGHS

Flight info

Callsign DRK300
Flight time 0h 44m
Altitude 35000
Route PRO R598 SDP W3 DAC
Aircraft A319/M-SDE3FGHIRWY/LB1

Departure

Time 2026-04-26 07:29
Airport Paro International Airport (VQPR)

Arrival

Time 2026-04-26 08:13
Airport Hazrat Shahjalal International Airport (VGHS)
Time Latitude Longitude Altitude Speed Heading
2026-04-26 07:28 27.29048 89.52444 13088 ft 225 kts 191°
2026-04-26 07:29 27.27433 89.52196 13225 ft 248 kts 179°
2026-04-26 07:29 27.25723 89.52787 13500 ft 269 kts 152°
2026-04-26 07:29 27.23985 89.53794 13778 ft 292 kts 158°
2026-04-26 07:29 27.22014 89.54636 14081 ft 312 kts 162°
2026-04-26 07:30 27.19889 89.55425 14358 ft 331 kts 163°
2026-04-26 07:30 27.17630 89.56243 14605 ft 350 kts 163°
2026-04-26 07:30 27.15257 89.57133 14831 ft 368 kts 162°
2026-04-26 07:30 27.12821 89.58107 15319 ft 374 kts 161°
2026-04-26 07:31 27.10396 89.59113 15870 ft 378 kts 160°
2026-04-26 07:31 27.07892 89.60176 16412 ft 383 kts 160°
2026-04-26 07:31 27.05381 89.61250 17005 ft 386 kts 160°
2026-04-26 07:31 27.02899 89.62309 17569 ft 389 kts 160°
2026-04-26 07:32 27.00351 89.63391 18176 ft 393 kts 160°
2026-04-26 07:32 26.97787 89.64476 18682 ft 396 kts 160°
2026-04-26 07:32 26.95191 89.65570 19172 ft 400 kts 160°
2026-04-26 07:32 26.92574 89.66669 19664 ft 404 kts 160°
2026-04-26 07:33 26.89926 89.67779 20154 ft 407 kts 160°
2026-04-26 07:33 26.87262 89.68894 20640 ft 411 kts 160°
2026-04-26 07:33 26.84569 89.70021 21132 ft 414 kts 160°
2026-04-26 07:33 26.81865 89.71152 21614 ft 417 kts 160°
2026-04-26 07:34 26.79123 89.72264 22073 ft 420 kts 163°
2026-04-26 07:34 26.76262 89.72909 22523 ft 422 kts 175°
2026-04-26 07:34 26.73318 89.72887 22956 ft 424 kts 187°
2026-04-26 07:34 26.70433 89.72186 23388 ft 425 kts 199°
2026-04-26 07:35 26.67729 89.70840 23760 ft 427 kts 211°
2026-04-26 07:35 26.65193 89.69112 24132 ft 428 kts 212°
2026-04-26 07:35 26.62654 89.67367 24504 ft 430 kts 213°
2026-04-26 07:35 26.60098 89.65615 24872 ft 432 kts 213°
2026-04-26 07:36 26.57528 89.63859 25235 ft 434 kts 213°
2026-04-26 07:36 26.54948 89.62102 25592 ft 435 kts 213°
2026-04-26 07:36 26.52368 89.60348 25955 ft 437 kts 213°
2026-04-26 07:36 26.49764 89.58577 26306 ft 439 kts 213°
2026-04-26 07:37 26.47141 89.56792 26664 ft 440 kts 213°
2026-04-26 07:37 26.44518 89.55004 27010 ft 442 kts 213°
2026-04-26 07:37 26.41901 89.53220 27348 ft 444 kts 213°
2026-04-26 07:37 26.39249 89.51414 27681 ft 446 kts 213°
2026-04-26 07:38 26.36589 89.49602 28010 ft 448 kts 213°
2026-04-26 07:38 26.33935 89.47778 28328 ft 449 kts 216°
2026-04-26 07:38 26.31471 89.45650 28626 ft 449 kts 223°
2026-04-26 07:38 26.29124 89.43403 28924 ft 451 kts 223°
2026-04-26 07:39 26.26708 89.41094 29225 ft 453 kts 222°
2026-04-26 07:39 26.24341 89.38832 29508 ft 455 kts 222°
2026-04-26 07:39 26.21924 89.36521 29784 ft 458 kts 222°
2026-04-26 07:39 26.19505 89.34212 30050 ft 460 kts 222°
2026-04-26 07:40 26.17070 89.31896 30315 ft 462 kts 222°
2026-04-26 07:40 26.14628 89.29577 30554 ft 463 kts 222°
2026-04-26 07:40 26.12174 89.27251 30881 ft 462 kts 222°
2026-04-26 07:40 26.09722 89.24930 31215 ft 461 kts 222°
2026-04-26 07:41 26.07297 89.22591 31555 ft 461 kts 223°
2026-04-26 07:41 26.04924 89.20203 31889 ft 460 kts 224°
2026-04-26 07:41 26.02593 89.17786 32254 ft 458 kts 224°
2026-04-26 07:41 26.00271 89.15349 32610 ft 458 kts 225°
2026-04-26 07:42 25.97959 89.12926 32965 ft 457 kts 224°
2026-04-26 07:42 25.95643 89.10521 33331 ft 456 kts 224°
2026-04-26 07:42 25.93318 89.08132 33702 ft 455 kts 223°
2026-04-26 07:42 25.90980 89.05750 34053 ft 454 kts 223°
2026-04-26 07:43 25.88643 89.03375 34393 ft 453 kts 223°
2026-04-26 07:43 25.86335 89.01024 34700 ft 451 kts 223°
2026-04-26 07:43 25.84022 88.98668 34830 ft 450 kts 223°
2026-04-26 07:44 25.78879 88.94817 34853 ft 450 kts 202°
2026-04-26 07:44 25.75857 88.93910 34851 ft 452 kts 189°
2026-04-26 07:44 25.72718 88.93784 34850 ft 455 kts 176°
2026-04-26 07:44 25.69599 88.94461 34851 ft 458 kts 163°
2026-04-26 07:45 25.66663 88.95814 34859 ft 460 kts 157°
2026-04-26 07:45 25.60825 88.98741 34842 ft 460 kts 157°
2026-04-26 07:46 25.54968 89.01652 34850 ft 461 kts 158°
2026-04-26 07:46 25.49120 89.04540 34841 ft 461 kts 158°
2026-04-26 07:47 25.43257 89.07441 34842 ft 461 kts 158°
2026-04-26 07:47 25.37421 89.10331 34841 ft 461 kts 158°
2026-04-26 07:48 25.31564 89.13238 34839 ft 460 kts 158°
2026-04-26 07:48 25.28679 89.14669 34676 ft 458 kts 158°
2026-04-26 07:48 25.25770 89.16109 34006 ft 460 kts 158°
2026-04-26 07:48 25.22827 89.17564 33180 ft 463 kts 157°
2026-04-26 07:49 25.19875 89.19023 32294 ft 468 kts 158°
2026-04-26 07:49 25.16883 89.20499 31392 ft 474 kts 158°
2026-04-26 07:49 25.13848 89.21993 30477 ft 480 kts 158°
2026-04-26 07:50 25.07689 89.25016 28724 ft 485 kts 158°
2026-04-26 07:50 25.04630 89.26521 28089 ft 480 kts 158°
2026-04-26 07:50 25.01592 89.28017 27472 ft 476 kts 159°
2026-04-26 07:50 24.99604 89.28997 27063 ft 473 kts 159°
2026-04-26 07:51 24.96607 89.30474 26454 ft 469 kts 159°
2026-04-26 07:51 24.93635 89.31938 25860 ft 465 kts 159°
2026-04-26 07:51 24.90692 89.33385 25286 ft 461 kts 159°
2026-04-26 07:51 24.87759 89.34825 24927 ft 459 kts 160°
2026-04-26 07:52 24.84849 89.36248 24778 ft 459 kts 160°
2026-04-26 07:52 24.81930 89.37673 24821 ft 460 kts 160°
2026-04-26 07:52 24.79010 89.39102 24587 ft 456 kts 160°
2026-04-26 07:52 24.76119 89.40524 24005 ft 453 kts 160°
2026-04-26 07:53 24.73260 89.41933 23445 ft 450 kts 160°
2026-04-26 07:53 24.70401 89.43339 22820 ft 447 kts 160°
2026-04-26 07:53 24.67571 89.44726 22232 ft 443 kts 160°
2026-04-26 07:53 24.64762 89.46097 21660 ft 440 kts 160°
2026-04-26 07:54 24.61972 89.47458 21127 ft 437 kts 160°
2026-04-26 07:54 24.59209 89.48805 20609 ft 434 kts 160°
2026-04-26 07:54 24.56468 89.50144 20122 ft 431 kts 160°
2026-04-26 07:54 24.53736 89.51477 19842 ft 430 kts 160°
2026-04-26 07:55 24.51007 89.52808 19790 ft 429 kts 160°
2026-04-26 07:55 24.48268 89.54143 19805 ft 430 kts 160°
2026-04-26 07:55 24.45537 89.55471 19607 ft 429 kts 160°
2026-04-26 07:55 24.42811 89.56797 19373 ft 427 kts 160°
2026-04-26 07:56 24.40099 89.58115 19142 ft 426 kts 160°
2026-04-26 07:56 24.37389 89.59444 18911 ft 425 kts 158°
2026-04-26 07:56 24.34837 89.61081 18683 ft 428 kts 147°
2026-04-26 07:56 24.32564 89.63197 18457 ft 430 kts 136°
2026-04-26 07:57 24.30653 89.65711 18235 ft 431 kts 127°
2026-04-26 07:57 24.28951 89.68403 17998 ft 429 kts 126°
2026-04-26 07:57 24.27246 89.71094 17739 ft 428 kts 126°
2026-04-26 07:57 24.25553 89.73762 17477 ft 426 kts 126°
2026-04-26 07:58 24.23861 89.76427 17220 ft 425 kts 126°
2026-04-26 07:58 24.22181 89.79069 16963 ft 423 kts 126°
2026-04-26 07:58 24.20497 89.81718 16726 ft 422 kts 126°
2026-04-26 07:58 24.18827 89.84343 16466 ft 420 kts 126°
2026-04-26 07:59 24.17178 89.86938 16219 ft 419 kts 126°
2026-04-26 07:59 24.15516 89.89550 15977 ft 417 kts 126°
2026-04-26 07:59 24.13857 89.92156 15733 ft 416 kts 126°
2026-04-26 07:59 24.12213 89.94736 15341 ft 412 kts 126°
2026-04-26 08:00 24.10586 89.97294 14832 ft 409 kts 126°
2026-04-26 08:00 24.08956 89.99854 14325 ft 406 kts 126°
2026-04-26 08:00 24.07346 90.02381 13823 ft 404 kts 126°
2026-04-26 08:00 24.05782 90.04829 13314 ft 401 kts 126°
2026-04-26 08:01 24.04188 90.07324 12775 ft 398 kts 127°
2026-04-26 08:01 24.02604 90.09803 12225 ft 395 kts 127°
2026-04-26 08:01 24.01038 90.12257 11694 ft 392 kts 127°
2026-04-26 08:01 23.99507 90.14652 11529 ft 378 kts 127°
2026-04-26 08:02 23.98029 90.16971 11416 ft 364 kts 127°
2026-04-26 08:02 23.96606 90.19205 11252 ft 353 kts 127°
2026-04-26 08:02 23.95209 90.21390 10896 ft 350 kts 127°
2026-04-26 08:02 23.93813 90.23565 10544 ft 347 kts 128°
2026-04-26 08:03 23.92435 90.25710 10217 ft 344 kts 128°
2026-04-26 08:03 23.91071 90.27836 9888 ft 340 kts 128°
2026-04-26 08:03 23.89719 90.29944 9566 ft 337 kts 128°
2026-04-26 08:03 23.88383 90.32020 9218 ft 333 kts 128°
2026-04-26 08:04 23.87057 90.34077 8867 ft 329 kts 128°
2026-04-26 08:04 23.85748 90.36109 8523 ft 325 kts 128°
2026-04-26 08:04 23.84475 90.38134 8183 ft 323 kts 123°
2026-04-26 08:04 23.83815 90.40451 7916 ft 320 kts 92°
2026-04-26 08:05 23.84277 90.42778 7636 ft 313 kts 60°
2026-04-26 08:05 23.85696 90.44469 7347 ft 300 kts 27°
2026-04-26 08:05 23.87637 90.45072 7064 ft 285 kts 354°
2026-04-26 08:05 23.89421 90.44469 6780 ft 268 kts 319°
2026-04-26 08:06 23.90543 90.42952 6471 ft 253 kts 290°
2026-04-26 08:06 23.91069 90.41144 6178 ft 249 kts 282°
2026-04-26 08:06 23.91711 90.39395 5852 ft 251 kts 297°
2026-04-26 08:06 23.92853 90.37942 5532 ft 255 kts 316°
2026-04-26 08:07 23.94374 90.36909 5215 ft 260 kts 334°
2026-04-26 08:07 23.96088 90.36269 4905 ft 259 kts 339°
2026-04-26 08:07 23.97788 90.35657 4632 ft 255 kts 339°
2026-04-26 08:07 23.99451 90.35046 4358 ft 250 kts 339°
2026-04-26 08:08 24.00919 90.34140 4091 ft 239 kts 310°
2026-04-26 08:08 24.01665 90.32601 3844 ft 226 kts 277°
2026-04-26 08:08 24.01550 90.30950 3615 ft 215 kts 246°
2026-04-26 08:08 24.00721 90.29634 3233 ft 213 kts 217°
2026-04-26 08:09 23.99418 90.28977 3054 ft 203 kts 189°
2026-04-26 08:09 23.98046 90.29073 2897 ft 196 kts 162°
2026-04-26 08:09 23.96882 90.29785 2684 ft 191 kts 146°
2026-04-26 08:09 23.95830 90.30631 2444 ft 184 kts 145°
2026-04-26 08:10 23.94828 90.31434 2234 ft 172 kts 145°
2026-04-26 08:10 23.93911 90.32166 2019 ft 153 kts 146°
2026-04-26 08:10 23.93094 90.32816 1827 ft 139 kts 145°
2026-04-26 08:10 23.92332 90.33422 1650 ft 134 kts 144°
2026-04-26 08:11 23.91580 90.34020 1491 ft 132 kts 144°
2026-04-26 08:11 23.90843 90.34606 1321 ft 131 kts 145°
2026-04-26 08:11 23.90105 90.35192 1144 ft 131 kts 144°
2026-04-26 08:11 23.89364 90.35780 981 ft 132 kts 143°
2026-04-26 08:12 23.88620 90.36369 812 ft 130 kts 142°
2026-04-26 08:12 23.87888 90.36952 673 ft 130 kts 142°
2026-04-26 08:12 23.87151 90.37531 463 ft 129 kts 141°
2026-04-26 08:12 23.86441 90.38100 287 ft 129 kts 141°
2026-04-26 08:13 23.85714 90.38686 114 ft 130 kts 141°
2026-04-26 08:13 23.85002 90.39254 38 ft 116 kts 142°
2026-04-26 08:13 23.84460 90.39682 36 ft 72 kts 144°
2026-04-26 08:13 23.84171 90.39913 35 ft 38 kts 140°
2026-04-26 08:14 23.84039 90.40118 37 ft 15 kts 114°
2026-04-26 08:14 23.84008 90.40199 36 ft 12 kts 103°
2026-04-26 08:14 23.83998 90.40290 36 ft 13 kts 91°
2026-04-26 08:14 23.84011 90.40388 36 ft 13 kts 77°
2026-04-26 08:15 23.84060 90.40478 36 ft 14 kts 55°
2026-04-26 08:15 23.84122 90.40567 36 ft 15 kts 52°
2026-04-26 08:15 23.84189 90.40563 36 ft 12 kts 323°
2026-04-26 08:15 23.84256 90.40509 35 ft 12 kts 324°
2026-04-26 08:16 23.84328 90.40452 35 ft 13 kts 324°
2026-04-26 08:16 23.84404 90.40392 36 ft 14 kts 324°
2026-04-26 08:16 23.84485 90.40327 35 ft 15 kts 323°
2026-04-26 08:16 23.84570 90.40260 36 ft 15 kts 324°
2026-04-26 08:17 23.84648 90.40243 36 ft 11 kts 49°
2026-04-26 08:17 23.84689 90.40310 36 ft 10 kts 54°
2026-04-26 08:17 23.84680 90.40360 35 ft 8 kts 143°
2026-04-26 08:17 23.84633 90.40397 36 ft 9 kts 144°
2026-04-26 08:18 23.84580 90.40439 36 ft 10 kts 143°
2026-04-26 08:18 23.84539 90.40492 36 ft 7 kts 84°
2026-04-26 08:18 23.84561 90.40535 36 ft 5 kts 54°
2026-04-26 08:18 23.84578 90.40561 36 ft 4 kts 54°
2026-04-26 08:19 23.84581 90.40565 36 ft 0 kts 54°